Location: Borgo
(42.3939°N, 9.2791°E)
Time: 19:18:04
(UTC+00:00)

Cosmos 1633 Rocket - Pass Details

Date: 27 February 2020
Orbit: 608 x 622 km, 82.5° (Epoch: 05 April)

Event Time Altitude Azimuth Distance (km) Brightness Sun altitude
Rises 17:42:41 0° 201° (SSW) 2,854 6.8 -6.9°
Reaches altitude 10° 17:44:58 10° 208° (SSW) 1,955 6.1 -7.3°
Maximum altitude 17:49:07 46° 282° (WNW) 822 4.3 -8.1°
Drops below altitude 10° 17:53:20 10° 356° (N) 1,973 5.7 -8.9°
Sets 17:55:38 0° 3° (N) 2,884 6.4 -9.3°
